#timestamp,LO_Frequency,Hit 
1502485215.6,286047001.5,N
1502485235.4,286047005.9,P
1502485255.3,286047003.5,N
1502485275.1,286047003.8,N
1502485276.0,286047003.8,N
1502485295.8,286047004.3,N
1502485315.7,286047007.4,P
1502485335.5,286047002.8,N
1502485355.3,286047002.7,N
1502485375.2,286047002.2,N
1502485395.9,286046999.8,N
1502485415.7,286047000.9,N
1502485435.5,286047000.4,N
1502485455.4,286047003.0,N
1502485475.2,286047006.2,N
1502485495.0,286047004.9,N
1502485495.9,286047004.9,N
1502485515.8,286047003.4,N
1502485535.6,286047005.9,N
1502485555.4,286047005.9,N
1502485575.3,286047003.6,N
1502485595.1,286047002.9,N
1502485596.0,286047002.9,N
1502485615.8,286047002.9,N
1502485635.7,286047003.0,N
1502485655.5,286047005.8,P
1502485675.3,286046999.8,N
1502485695.2,286047001.6,N
1502485715.9,286047002.1,N
1502485735.7,286047000.2,N
1502485755.6,286046997.1,N
1502485775.4,286046998.9,N
1502485795.2,286046999.4,N
1502485815.1,286046997.7,N
1502485816.0,286046997.7,N
1502485835.8,286046994.9,N
1502485855.6,286046996.7,N
1502485875.5,286046999.8,N
1502485895.3,286047002.5,N
1502485915.1,286047000.1,N
1502485935.8,286047000.2,N
1502485955.7,286047000.7,N
1502485975.5,286046999.5,N
1502485995.3,286046997.6,N
1502486015.2,286046997.8,N
1502486035.9,286046995.7,N
1502486055.7,286046993.9,N
1502486075.6,286046996.4,N
1502486095.4,286046993.3,N
1502486115.2,286046993.7,N
1502486135.1,286046993.4,N
1502486136.0,286046993.4,N
1502486155.8,286046992.0,N
1502486175.6,286046994.1,N
1502486195.4,286046994.5,N
1502486215.3,286046993.3,N
1502486235.1,286046993.9,N
1502486255.8,286046994.0,N
1502486275.7,286046996.0,N
1502486295.5,286046995.5,N
1502486315.3,286046996.1,N
1502486335.2,286046993.5,N
1502486355.9,286046995.2,N
1502486375.7,286046996.1,N
1502486395.6,286046995.1,N
1502486415.4,286046994.5,N
1502486435.2,286046994.7,N
1502486455.1,286046992.8,N
1502486456.0,286046992.8,N
1502486475.8,286046992.0,P
1502486495.6,286046999.3,N
1502486515.5,286046997.3,N
1502486535.3,286046997.7,N
1502486555.1,286046993.6,N
1502486575.9,286046996.1,N
1502486595.7,286046997.5,N
1502486615.5,286047002.2,N
1502486635.3,286047001.7,N
1502486655.2,286047001.4,N
1502486675.0,286047005.9,N
1502486675.9,286047005.9,N
1502486695.7,286047003.6,N
1502486715.6,286047001.9,N
1502486735.4,286047002.5,N
1502486755.2,286047005.6,N
1502486775.1,286047005.5,N
1502486776.0,286047005.5,N
1502486795.8,286047003.8,N
1502486815.6,286047005.4,N
1502486835.5,286047005.5,N
1502486855.3,286047001.3,N
1502486875.1,286047008.6,N
1502486895.9,286047007.6,N
1502486915.7,286047005.2,N
1502486935.5,286047001.4,N
1502486955.3,286047002.0,N
1502486975.2,286047002.9,N
1502486995.0,286047005.3,N
1502486995.9,286047005.3,N
1502487015.7,286047006.0,N
1502487035.6,286047004.8,N
1502487055.4,286047010.4,N
1502487075.2,286047007.0,N
1502487095.1,286047008.1,N
1502487096.0,286047008.1,N
1502487115.8,286047010.0,P
1502487135.6,286047006.3,N
1502487155.5,286047010.0,P
1502487175.3,286047006.4,N
1502487195.1,286047003.0,N
1502487215.9,286047002.9,N
1502487235.7,286047004.8,N
1502487255.5,286047008.4,P
1502487275.4,286047000.1,N
1502487295.2,286046999.5,N
1502487315.0,286046997.2,N
1502487315.9,286046997.2,N
1502487335.8,286046998.0,N
1502487355.6,286046995.6,N
1502487375.4,286046993.3,N
1502487395.3,286046996.2,N
1502487415.1,286046995.3,N
1502487416.0,286046995.3,N
1502487435.8,286046995.0,N
1502487455.7,286046999.5,N
1502487475.5,286046996.9,N
1502487495.3,286046998.0,N
1502487515.1,286046997.4,N
1502487535.9,286046999.1,N
1502487555.7,286046995.8,N
1502487575.5,286046994.7,N
1502487595.4,286046993.3,N
1502487615.2,286046991.9,N
1502487635.0,286046992.6,N
1502487635.9,286046992.6,N
1502487655.8,286046990.9,N
1502487675.6,286046992.0,N
1502487695.4,286046994.8,N
1502487715.3,286046992.4,N
1502487735.1,286046994.8,N
1502487736.0,286046994.8,N
1502487755.8,286046994.5,N
1502487775.7,286046994.6,N
1502487795.5,286046996.2,N
1502487815.3,286046991.7,P
1502487835.2,286046997.1,N
1502487855.9,286046995.4,N
1502487875.7,286046997.3,N
1502487895.6,286046999.1,N
1502487915.4,286046997.4,N
1502487935.2,286046994.9,N
1502487955.1,286046993.6,P
1502487956.0,286046993.6,P
1502487975.8,286046999.0,N
1502487995.6,286047000.6,N
1502488015.5,286047001.0,N
1502488035.3,286047002.0,N
1502488055.1,286047003.3,N
1502488075.8,286047004.2,N
1502488095.7,286047003.6,N
1502488115.5,286047002.2,N
1502488135.3,286047002.8,N
1502488155.2,286046998.2,N
1502488175.9,286046999.5,N
1502488195.7,286047000.8,N
1502488215.6,286046998.2,N
1502488235.4,286047002.3,N
1502488255.2,286047001.9,N
1502488275.1,286047002.5,N
1502488276.0,286047002.5,N
1502488295.8,286047003.7,N
1502488315.6,286047007.1,N
1502488335.5,286047003.1,N
1502488355.3,286047006.0,N
1502488375.1,286047004.0,N
1502488395.8,286047001.4,N
1502488415.7,286047002.0,N
1502488435.5,286047005.5,N
1502488455.3,286047005.0,N
1502488475.2,286047004.5,N
1502488495.9,286047003.7,N
1502488515.7,286047004.3,N
1502488535.6,286047005.1,N
1502488555.4,286047010.3,P
1502488575.2,286047006.8,N
1502488595.1,286047003.5,N
1502488596.0,286047003.5,N
1502488615.8,286047004.3,N
1502488635.6,286047001.9,N
1502488655.5,286047003.9,N
1502488675.3,286047000.3,N
1502488695.1,286046997.7,N
1502488715.9,286046996.7,N
1502488735.7,286047000.7,N
1502488755.5,286047000.6,N
1502488775.3,286046998.9,N
1502488795.2,286046997.3,N
